TimeCDT,TemperatureF,Dew PointF,Humidity,Sea Level PressureIn,VisibilityMPH,Wind Direction,Wind SpeedMPH,Gust SpeedMPH,PrecipitationIn,Events,Conditions,WindDirDegrees,DateUTC
12:12 AM,28.4,21.2,74,30.22,10.0,Calm,Calm,-,N/A,,Clear,0,2013-05-12 05:12:00
12:33 AM,28.4,21.2,74,30.23,10.0,Calm,Calm,-,N/A,,Clear,0,2013-05-12 05:33:00
12:52 AM,30.2,21.2,69,30.23,7.0,Calm,Calm,-,N/A,,Clear,0,2013-05-12 05:52:00
1:33 AM,28.4,21.2,74,30.23,10.0,Calm,Calm,-,N/A,,Clear,0,2013-05-12 06:33:00
1:52 AM,26.6,21.2,80,30.23,10.0,Calm,Calm,-,N/A,,Clear,0,2013-05-12 06:52:00
2:13 AM,26.6,19.4,74,30.23,10.0,Calm,Calm,-,N/A,,Clear,0,2013-05-12 07:13:00
2:32 AM,26.6,21.2,80,30.23,10.0,Calm,Calm,-,N/A,,Clear,0,2013-05-12 07:32:00
2:53 AM,26.6,19.4,74,30.22,10.0,Calm,Calm,-,N/A,,Clear,0,2013-05-12 07:53:00
3:12 AM,24.8,19.4,80,30.22,10.0,Calm,Calm,-,N/A,,Clear,0,2013-05-12 08:12:00
3:32 AM,24.8,19.4,80,30.22,10.0,Calm,Calm,-,N/A,,Clear,0,2013-05-12 08:32:00
3:52 AM,23.0,19.4,86,30.22,10.0,Calm,Calm,-,N/A,,Clear,0,2013-05-12 08:52:00
4:13 AM,23.0,19.4,86,30.23,10.0,Calm,Calm,-,N/A,,Clear,0,2013-05-12 09:13:00
4:33 AM,23.0,19.4,86,30.23,10.0,Calm,Calm,-,N/A,,Clear,0,2013-05-12 09:33:00
4:53 AM,21.2,17.6,86,30.23,10.0,Calm,Calm,-,N/A,,Clear,0,2013-05-12 09:53:00
5:13 AM,21.2,17.6,86,30.23,10.0,Calm,Calm,-,N/A,,Clear,0,2013-05-12 10:13:00
5:32 AM,21.2,19.4,93,30.23,10.0,Calm,Calm,-,N/A,,Clear,0,2013-05-12 10:32:00
5:53 AM,21.2,17.6,86,30.23,10.0,Calm,Calm,-,N/A,,Clear,0,2013-05-12 10:53:00
6:13 AM,21.2,17.6,86,30.23,10.0,Calm,Calm,-,N/A,,Clear,0,2013-05-12 11:13:00
6:32 AM,21.2,19.4,93,30.24,10.0,Calm,Calm,-,N/A,,Clear,0,2013-05-12 11:32:00
6:52 AM,24.8,21.2,86,30.24,10.0,Calm,Calm,-,N/A,,Clear,0,2013-05-12 11:52:00
7:13 AM,30.2,23.0,75,30.24,10.0,Calm,Calm,-,N/A,,Clear,0,2013-05-12 12:13:00
7:33 AM,32.0,23.0,69,30.25,10.0,NW,4.6,-,N/A,,Clear,310,2013-05-12 12:33:00
7:53 AM,33.8,21.2,60,30.25,10.0,North,5.8,-,N/A,,Clear,350,2013-05-12 12:53:00
8:13 AM,35.6,21.2,56,30.24,10.0,NNE,5.8,-,N/A,,Clear,20,2013-05-12 13:13:00
8:32 AM,37.4,21.2,52,30.25,10.0,North,5.8,-,N/A,,Clear,350,2013-05-12 13:32:00
8:52 AM,37.4,21.2,52,30.25,10.0,NNW,5.8,-,N/A,,Clear,340,2013-05-12 13:52:00
9:13 AM,39.2,19.4,45,30.25,10.0,NNE,6.9,-,N/A,,Clear,20,2013-05-12 14:13:00
9:33 AM,39.2,19.4,45,30.25,10.0,NW,8.1,-,N/A,,Clear,310,2013-05-12 14:33:00
9:53 AM,39.2,19.4,45,30.25,10.0,WNW,6.9,-,N/A,,Clear,300,2013-05-12 14:53:00
10:33 AM,42.8,19.4,39,30.24,10.0,NW,4.6,-,N/A,,Clear,310,2013-05-12 15:33:00
10:53 AM,42.8,15.8,34,30.23,10.0,NW,8.1,-,N/A,,Clear,310,2013-05-12 15:53:00
11:13 AM,44.6,14.0,29,30.23,10.0,NW,8.1,16.1,N/A,,Clear,320,2013-05-12 16:13:00
11:33 AM,44.6,14.0,29,30.22,10.0,NW,5.8,9.2,N/A,,Clear,320,2013-05-12 16:33:00
11:52 AM,46.4,15.8,29,30.22,10.0,NW,10.4,-,N/A,,Clear,310,2013-05-12 16:52:00
12:13 PM,46.4,14.0,27,30.22,10.0,North,4.6,16.1,N/A,,Clear,350,2013-05-12 17:13:00
12:33 PM,46.4,14.0,27,30.21,10.0,North,10.4,-,N/A,,Clear,10,2013-05-12 17:33:00
12:53 PM,46.4,14.0,27,30.20,10.0,NNW,9.2,-,N/A,,Clear,340,2013-05-12 17:53:00
1:13 PM,48.2,12.2,24,30.19,10.0,North,6.9,-,N/A,,Clear,350,2013-05-12 18:13:00
1:32 PM,48.2,12.2,24,30.18,10.0,NNW,9.2,-,N/A,,Clear,340,2013-05-12 18:32:00
1:53 PM,50.0,14.0,24,30.17,10.0,North,10.4,-,N/A,,Clear,350,2013-05-12 18:53:00
2:12 PM,51.8,14.0,22,30.17,10.0,WNW,10.4,-,N/A,,Clear,300,2013-05-12 19:12:00
2:32 PM,51.8,14.0,22,30.16,10.0,NW,6.9,-,N/A,,Clear,320,2013-05-12 19:32:00
2:53 PM,51.8,12.2,21,30.16,10.0,NW,6.9,18.4,N/A,,Clear,320,2013-05-12 19:53:00
3:12 PM,53.6,15.8,22,30.16,10.0,NNW,8.1,-,N/A,,Clear,330,2013-05-12 20:12:00
3:32 PM,53.6,12.2,19,30.15,10.0,North,9.2,-,N/A,,Clear,350,2013-05-12 20:32:00
3:53 PM,53.6,14.0,21,30.15,10.0,North,9.2,17.3,N/A,,Clear,360,2013-05-12 20:53:00
4:13 PM,53.6,12.2,19,30.14,10.0,North,8.1,18.4,N/A,,Clear,350,2013-05-12 21:13:00
4:33 PM,53.6,14.0,21,30.13,10.0,North,9.2,-,N/A,,Clear,350,2013-05-12 21:33:00
4:52 PM,53.6,12.2,19,30.13,10.0,North,8.1,-,N/A,,Clear,350,2013-05-12 21:52:00
5:12 PM,53.6,14.0,21,30.13,10.0,North,8.1,-,N/A,,Clear,10,2013-05-12 22:12:00
5:33 PM,53.6,14.0,21,30.13,10.0,North,11.5,-,N/A,,Clear,360,2013-05-12 22:33:00
5:53 PM,53.6,15.8,22,30.13,10.0,North,6.9,-,N/A,,Clear,360,2013-05-12 22:53:00
6:13 PM,53.6,15.8,22,30.12,10.0,NNE,11.5,-,N/A,,Clear,20,2013-05-12 23:13:00
6:32 PM,53.6,15.8,22,30.12,10.0,North,11.5,16.1,N/A,,Clear,10,2013-05-12 23:32:00
6:53 PM,53.6,15.8,22,30.12,10.0,NNE,9.2,-,N/A,,Clear,30,2013-05-12 23:53:00
7:13 PM,51.8,17.6,26,30.12,10.0,North,5.8,-,N/A,,Clear,10,2013-05-13 00:13:00
7:32 PM,51.8,15.8,24,30.12,10.0,NE,5.8,-,N/A,,Clear,40,2013-05-13 00:32:00
7:53 PM,51.8,17.6,26,30.12,10.0,NE,4.6,-,N/A,,Clear,40,2013-05-13 00:53:00
8:13 PM,48.2,17.6,30,30.12,10.0,NE,3.5,-,N/A,,Clear,40,2013-05-13 01:13:00
8:32 PM,48.2,17.6,30,30.12,10.0,Calm,Calm,-,N/A,,Clear,0,2013-05-13 01:32:00
8:53 PM,44.6,19.4,37,30.12,10.0,Calm,Calm,-,N/A,,Clear,0,2013-05-13 01:53:00
9:12 PM,42.8,23.0,46,30.12,10.0,Calm,Calm,-,N/A,,Clear,0,2013-05-13 02:12:00
9:32 PM,39.2,24.8,56,30.12,10.0,Calm,Calm,-,N/A,,Clear,0,2013-05-13 02:32:00
9:51 PM,39.2,23.0,52,30.12,10.0,Calm,Calm,-,N/A,,Clear,0,2013-05-13 02:51:00
10:13 PM,37.4,21.2,52,30.12,10.0,Calm,Calm,-,N/A,,Clear,0,2013-05-13 03:13:00
10:33 PM,35.6,23.0,60,30.12,10.0,Calm,Calm,-,N/A,,Clear,0,2013-05-13 03:33:00
10:52 PM,35.6,23.0,60,30.12,10.0,Calm,Calm,-,N/A,,Clear,0,2013-05-13 03:52:00
11:12 PM,33.8,23.0,65,30.12,10.0,Calm,Calm,-,N/A,,Clear,0,2013-05-13 04:12:00
11:33 PM,33.8,26.6,75,30.12,10.0,Calm,Calm,-,N/A,,Clear,0,2013-05-13 04:33:00
11:53 PM,33.8,24.8,70,30.12,10.0,Calm,Calm,-,N/A,,Clear,0,2013-05-13 04:53:00